GW5164 Weather Reports


Display with metric or nautical units.
time (UTC)temp
F
wind
direction
speed
MPH
gust
MPH
rain 1hr
in
rain 24hr
in
rain mn
in
humidity
%
barometer
mb
20260504180113 76 269 3.0 7.0 0.00 0.00 0.00 35 1015.0
20260504174556 74 205 3.0 11.0 0.00 0.00 0.00 37 1015.2
20260504173107 73 159 7.0 14.0 0.00 0.00 0.00 38 1015.2
20260504171605 74 132 4.0 9.0 0.00 0.00 0.00 37 1015.2
20260504081558 40 0 0.0 1.0 0.00 0.00 0.00 89 1016.2
20260504050104 44 0 0.0 1.0 0.00 0.00 0.00 81 1016.6
20260504044556 43 323 0.0 0.0 0.00 0.00 0.00 82 1016.6
20260504043100 44 0 0.0 1.0 0.00 0.00 0.00 80 1016.5
20260504041552 45 318 0.0 1.0 0.00 0.00 0.00 79 1016.4
20260504034630 45 0 0.0 1.0 0.00 0.00 0.00 77 1016.3
20260504033058 46 319 1.0 2.0 0.00 0.00 0.00 77 1016.4
20260504031557 46 108 0.0 1.0 0.00 0.00 0.00 75 1016.4
20260504030056 47 0 0.0 1.0 0.00 0.00 0.00 74 1016.6
20260504024557 47 0 0.0 1.0 0.00 0.00 0.00 72 1016.5
20260504023055 48 0 0.0 0.0 0.00 0.00 0.00 71 1016.6
20260504021557 49 0 0.0 1.0 0.00 0.00 0.00 70 1016.3
20260504020115 50 0 0.0 1.0 0.00 0.00 0.00 68 1016.2
20260504014600 51 0 0.0 1.0 0.00 0.00 0.00 65 1015.9
20260504013116 52 0 0.0 2.0 0.00 0.00 0.00 64 1015.6
20260504011556 52 307 0.0 2.0 0.00 0.00 0.00 63 1015.7
20260504010100 54 308 0.0 1.0 0.00 0.00 0.00 61 1015.4
20260504004558 56 297 0.0 2.0 0.00 0.00 0.00 56 1015.4
20260504003058 58 17 0.0 1.0 0.00 0.00 0.00 49 1015.3
20260504001600 59 0 0.0 1.0 0.00 0.00 0.00 44 1015.1
20260504000058 61 0 0.0 1.0 0.00 0.00 0.00 43 1015.1
20260503234555 64 0 0.0 1.0 0.00 0.00 0.00 37 1014.9
20260503233059 67 0 0.0 2.0 0.00 0.00 0.00 31 1014.9
20260503231555 67 0 2.0 6.0 0.00 0.00 0.00 31 1014.9
20260503230058 67 276 1.0 6.0 0.00 0.00 0.00 30 1014.9
20260503224606 67 230 2.0 7.0 0.00 0.00 0.00 28 1014.9
20260503223054 68 139 1.0 6.0 0.00 0.00 0.00 27 1015.0
20260503221603 68 198 1.0 10.0 0.00 0.00 0.00 29 1015.1
20260503220054 68 207 3.0 7.0 0.00 0.00 0.00 27 1015.1
20260503214553 68 228 3.0 8.0 0.00 0.00 0.00 29 1015.3
20260503213100 67 152 5.0 11.0 0.00 0.00 0.00 29 1015.4
20260503211556 67 266 6.0 12.0 0.00 0.00 0.00 27 1015.7
20260503210056 67 124 3.0 12.0 0.00 0.00 0.00 27 1015.7
20260503204616 67 115 4.0 7.0 0.00 0.00 0.00 28 1015.9
20260503203101 66 267 3.0 7.0 0.00 0.00 0.00 29 1016.1
20260503201555 66 283 3.0 8.0 0.00 0.00 0.00 29 1016.4
20260503200057 65 128 4.0 10.0 0.00 0.00 0.00 30 1016.5
20260503194557 65 223 3.0 9.0 0.00 0.00 0.00 29 1016.6
20260503193113 66 144 7.0 16.0 0.00 0.00 0.00 30 1016.7
20260503191611 66 235 5.0 8.0 0.00 0.00 0.00 26 1016.8
20260503190055 66 189 3.0 10.0 0.00 0.00 0.00 25 1017.1
20260503184600 65 214 5.0 10.0 0.00 0.00 0.00 24 1017.3
20260503183056 64 0 4.0 10.0 0.00 0.00 0.00 26 1017.4
20260503181556 64 280 0.0 11.0 0.00 0.00 0.00 27 1017.6